Location: Appeville
(49.3218°N, 1.3427°W)
Time: 11:58:59
(UTC+00:00)

Cosmos 2297 Rocket - Pass Details

Date: 08 December 2019
Orbit: 838 x 845 km, 71.0° (Epoch: 23 January)

Event Time Altitude Azimuth Distance (km) Brightness Sun altitude
Exits shadow 04:09:54 29° 31° (NNE) 1,508 3.7 -34.3°
Drops below altitude 10° 04:12:33 10° 30° (NNE) 2,468 4.9 -33.9°
Sets 04:15:00 0° 30° (NNE) 3,407 5.8 -33.5°
